TimeEDT,TemperatureF,Dew PointF,Humidity,Sea Level PressureIn,VisibilityMPH,Wind Direction,Wind SpeedMPH,Gust SpeedMPH,PrecipitationIn,Events,Conditions,WindDirDegrees,DateUTC
12:52 AM,34.0,16.0,48,30.29,10.0,NW,9.2,20.7,N/A,,Clear,310,2013-04-21 04:52:00
1:52 AM,33.1,15.1,48,30.30,10.0,WNW,8.1,-,N/A,,Clear,300,2013-04-21 05:52:00
2:52 AM,32.0,15.1,50,30.32,10.0,Variable,6.9,-,N/A,,Clear,0,2013-04-21 06:52:00
3:52 AM,32.0,16.0,52,30.35,10.0,Variable,6.9,-,N/A,,Clear,0,2013-04-21 07:52:00
4:52 AM,30.9,17.1,57,30.36,10.0,Variable,5.8,-,N/A,,Scattered Clouds,0,2013-04-21 08:52:00
5:52 AM,32.0,18.0,56,30.41,10.0,NNW,9.2,-,N/A,,Overcast,330,2013-04-21 09:52:00
6:52 AM,30.9,16.0,54,30.46,10.0,Variable,6.9,-,N/A,,Clear,0,2013-04-21 10:52:00
7:52 AM,33.1,16.0,50,30.49,10.0,NNW,8.1,-,N/A,,Clear,340,2013-04-21 11:52:00
8:52 AM,34.0,16.0,48,30.52,10.0,NW,6.9,16.1,N/A,,Clear,320,2013-04-21 12:52:00
10:52 AM,37.9,16.0,41,30.55,10.0,Variable,6.9,17.3,N/A,,Clear,0,2013-04-21 14:52:00
11:52 AM,41.0,16.0,36,30.57,10.0,NW,6.9,-,N/A,,Clear,310,2013-04-21 15:52:00
12:52 PM,44.1,15.1,31,30.56,10.0,Variable,5.8,-,N/A,,Clear,0,2013-04-21 16:52:00
1:52 PM,44.1,12.9,28,30.56,10.0,Variable,3.5,-,N/A,,Clear,0,2013-04-21 17:52:00
2:52 PM,46.9,12.9,25,30.56,10.0,Variable,5.8,-,N/A,,Clear,0,2013-04-21 18:52:00
3:52 PM,48.9,12.9,24,30.56,10.0,Variable,5.8,-,N/A,,Clear,0,2013-04-21 19:52:00
4:52 PM,50.0,12.0,22,30.56,10.0,Variable,5.8,-,N/A,,Clear,0,2013-04-21 20:52:00
5:52 PM,48.9,10.9,22,30.58,10.0,Variable,5.8,-,N/A,,Clear,0,2013-04-21 21:52:00
6:52 PM,46.9,12.9,25,30.60,10.0,Calm,Calm,-,N/A,,Clear,0,2013-04-21 22:52:00
7:52 PM,39.9,19.0,43,30.63,10.0,Calm,Calm,-,N/A,,Clear,0,2013-04-21 23:52:00
8:52 PM,34.0,23.0,64,30.67,10.0,Calm,Calm,-,N/A,,Clear,0,2013-04-22 00:52:00
9:52 PM,32.0,24.1,73,30.69,10.0,Calm,Calm,-,N/A,,Clear,0,2013-04-22 01:52:00
10:52 PM,30.0,21.0,69,30.70,10.0,Calm,Calm,-,N/A,,Clear,0,2013-04-22 02:52:00
11:52 PM,28.9,21.0,72,30.70,10.0,Calm,Calm,-,N/A,,Clear,0,2013-04-22 03:52:00